FW6259 Weather Reports


time (UTC)temp
F
wind
direction
speed
knots
gust
knots
rain 1hr
in
rain 24hr
in
rain mn
in
humidity
%
barometer
mb
20260901200111 56 317 2.6 10.4 0.00 0.00 0.00 55 1009.7
20260901194501 55 108 5.2 11.3 0.00 0.00 0.00 55 1009.8
20260901193054 55 65 4.3 13.0 0.00 0.00 0.00 56 1009.8
20260901191623 54 308 2.6 13.0 0.00 0.00 0.00 61 1010.0
20260901190040 53 65 5.2 13.0 0.00 0.00 0.00 62 1010.0
20260901184557 53 89 2.6 7.8 0.00 0.00 0.00 65 1010.1
20260901183055 51 104 5.2 11.3 0.00 0.00 0.00 67 1010.2
20260901181551 51 83 5.2 11.3 0.00 0.00 0.00 64 1010.2
20260901180057 51 34 1.7 8.7 0.00 0.00 0.00 68 1010.3
20260901174556 50 41 2.6 11.3 0.00 0.00 0.00 68 1010.3
20260901173044 49 20 5.2 11.3 0.00 0.00 0.00 68 1010.1
20260901171604 48 30 2.6 12.2 0.00 0.00 0.00 71 1010.2
20260901170056 46 1 3.5 9.6 0.00 0.00 0.00 72 1010.3
20260901164502 45 36 4.3 9.6 0.00 0.00 0.00 73 1010.3
20260901163056 44 54 0.9 6.1 0.00 0.00 0.00 76 1010.3
20260901161553 43 23 2.6 7.8 0.00 0.00 0.00 77 1010.3
20260901160001 42 317 1.7 8.7 0.00 0.00 0.00 79 1010.0
20260901154557 40 338 3.5 10.4 0.00 0.00 0.00 81 1010.1
20260901153059 40 31 1.7 9.6 0.00 0.00 0.00 82 1010.0
20260901151600 38 327 2.6 7.8 0.00 0.00 0.00 85 1009.9
20260901150107 37 328 2.6 6.1 0.00 0.00 0.00 85 1009.7
20260901144550 37 77 2.6 7.0 0.00 0.00 0.00 86 1009.8
20260901143114 37 45 1.7 8.7 0.00 0.00 0.00 85 1009.8
20260901141606 36 31 2.6 7.0 0.00 0.00 0.00 86 1009.8
20260901140124 37 336 0.9 6.1 0.00 0.00 0.00 86 1009.8
20260901134557 37 44 1.7 5.2 0.00 0.00 0.00 85 1009.9
20260901133052 37 31 2.6 6.1 0.00 0.00 0.00 86 1009.8
20260901131508 37 342 2.6 6.1 0.00 0.00 0.00 85 1009.7
20260901130059 37 293 1.7 5.2 0.00 0.00 0.00 84 1009.7
20260901124556 38 326 3.5 7.0 0.00 0.01 0.00 84 1009.8
20260901123044 37 317 1.7 7.0 0.00 0.01 0.00 84 1009.6
20260901121607 37 333 1.7 6.1 0.00 0.01 0.00 83 1009.6
20260901120048 37 354 1.7 7.8 0.00 0.01 0.00 83 1009.5
20260901114507 37 330 1.7 7.8 0.00 0.03 0.00 83 1009.6
20260901113103 37 4 2.6 7.8 0.00 0.03 0.00 83 1009.3
20260901111654 37 323 3.5 7.8 0.00 0.03 0.00 83 1009.4
20260901110043 37 250 1.7 7.8 0.00 0.03 0.00 83 1009.2
20260901104604 38 346 1.7 4.3 0.00 0.06 0.00 82 1008.9
20260901103051 38 311 2.6 6.1 0.00 0.06 0.00 82 1008.5
20260901101601 39 299 1.7 5.2 0.00 0.06 0.00 80 1008.5
20260901100159 40 346 2.6 7.8 0.00 0.06 0.00 79 1008.3
20260901094552 40 360 2.6 8.7 0.00 0.08 0.00 78 1008.4
20260901093047 40 358 3.5 10.4 0.00 0.08 0.00 79 1008.3
20260901091601 40 26 2.6 8.7 0.00 0.08 0.00 79 1007.9
20260901090050 40 285 3.5 7.0 0.00 0.08 0.00 80 1007.8
20260901084551 40 359 2.6 7.0 0.00 0.09 0.00 79 1007.7
20260901083058 41 335 1.7 6.1 0.00 0.09 0.00 78 1007.6
20260901081559 41 39 1.7 7.8 0.00 0.09 0.00 78 1007.5
20260901080217 41 319 3.5 8.7 0.00 0.09 0.00 78 1007.2
20260901074500 41 29 2.6 13.0 0.00 0.12 0.09 77 1007.2
20260901073047 41 326 1.7 7.0 0.00 0.12 0.09 78 1007.2
20260901071504 41 341 2.6 8.7 0.00 0.12 0.09 78 1007.1
20260901064550 42 321 2.6 7.8 0.00 0.14 0.09 77 1006.9
20260901063103 42 316 2.6 7.0 0.00 0.14 0.09 76 1006.7
20260901061602 42 53 2.6 6.1 0.00 0.14 0.09 76 1006.6
20260901060046 43 345 2.6 8.7 0.00 0.14 0.09 76 1006.3
20260901054607 44 31 2.6 11.3 0.00 0.14 0.09 76 1006.1
20260901053055 44 325 3.5 10.4 0.00 0.14 0.09 76 1006.1
20260901051549 45 13 3.5 8.7 0.00 0.14 0.09 76 1006.0
20260901050002 45 340 2.6 7.8 0.00 0.14 0.09 76 1006.0
20260901044612 45 23 1.7 6.1 0.00 0.14 0.09 75 1005.8
20260901043047 46 10 1.7 5.2 0.00 0.14 0.09 74 1005.6
20260901041502 46 60 1.7 7.0 0.00 0.14 0.09 73 1005.3
20260901040100 47 38 2.6 7.8 0.00 0.14 0.09 73 1005.1
20260901034548 47 323 1.7 10.4 0.00 0.14 0.09 72 1005.0
20260901033059 47 12 2.6 12.2 0.00 0.14 0.09 71 1004.7
20260901031558 48 32 5.2 10.4 0.00 0.14 0.09 69 1004.5
20260901030049 49 335 2.6 9.6 0.00 0.14 0.09 68 1004.1
20260901024502 49 25 4.3 12.2 0.00 0.14 0.09 67 1003.7
20260901023055 49 315 4.3 11.3 0.00 0.14 0.09 67 1003.4
20260901021605 50 64 5.2 13.0 0.00 0.14 0.09 66 1003.2
20260901020100 51 41 7.0 12.2 0.00 0.14 0.09 64 1002.8
20260901014557 51 41 4.3 13.0 0.00 0.14 0.09 65 1002.5
20260901013051 51 63 4.3 13.0 0.00 0.14 0.09 64 1002.1
20260901011501 51 49 4.3 14.8 0.00 0.14 0.09 65 1001.8
20260901010158 51 15 7.8 19.1 0.00 0.14 0.09 64 1001.5
20260901004549 51 26 3.5 13.0 0.00 0.14 0.09 66 1001.4
20260901003042 51 44 6.1 13.9 0.00 0.14 0.09 66 1001.1
20260901001604 51 41 4.3 15.6 0.00 0.14 0.09 68 1000.8
20260901000051 51 63 6.1 17.4 0.00 0.14 0.09 67 1000.4
20260831234547 51 51 8.7 17.4 0.00 0.14 0.09 67 1000.2
20260831233054 50 58 6.1 15.6 0.00 0.14 0.09 72 1000.1
20260831231602 49 31 8.7 18.2 0.00 0.14 0.09 72 999.8
20260831230051 49 25 6.1 20.0 0.00 0.14 0.09 73 999.6
20260831224629 49 62 8.7 21.7 0.00 0.14 0.09 73 999.3
20260831223051 50 65 8.7 19.1 0.00 0.14 0.09 74 999.2
20260831221553 50 11 6.1 13.0 0.00 0.14 0.09 79 999.1
20260831220059 50 15 4.3 13.0 0.00 0.14 0.09 79 999.0
20260831214554 50 37 4.3 13.0 0.00 0.14 0.09 81 999.1
20260831213049 49 9 5.2 10.4 0.00 0.14 0.09 82 999.0
20260831211608 48 358 3.5 11.3 0.00 0.14 0.09 85 999.2
20260831204547 47 321 1.7 9.6 0.00 0.14 0.09 92 999.2
20260831203059 46 323 2.6 7.8 0.00 0.14 0.09 93 999.2
20260831201558 45 300 3.5 7.0 0.00 0.14 0.09 94 999.4